Location: Bow
(51.5261°N, 0.0167°W)
Time: 11:49:01
(UTC+00:00)

Meteor 2-13 Rocket - Visible Passes

Search period start: 18 January 2021 00:00
Search period end: 28 January 2021 00:00
Orbit: 937 x 957 km, 82.5° (Epoch: 17 January)

Date Brightness Start Highest point End Pass type
(mag) Time Alt. Az. Time Alt. Az. Time Alt. Az.
18 Jan 7.2 03:29:10 10° NNE 03:31:35 12° NE 03:34:00 10° ENE visible
18 Jan 5.2 05:11:56 10° N 05:17:59 53° ENE 05:24:00 10° SSE visible
18 Jan 5.2 06:57:13 10° NNW 07:02:33 32° W 07:07:51 10° SW visible
18 Jan 6.0 17:02:07 10° ESE 17:04:57 14° ENE 17:07:48 10° NE visible
18 Jan 4.3 18:42:34 10° S 18:48:38 71° E 18:54:45 10° NNE visible
18 Jan 6.4 20:29:07 10° WSW 20:34:04 25° WNW 20:39:06 10° N visible
19 Jan 6.9 03:44:57 10° NNE 03:48:54 17° NE 03:52:51 10° E visible
19 Jan 4.6 05:28:40 10° N 05:34:52 76° ENE 05:41:02 10° SSE visible
19 Jan 5.6 07:14:29 10° NNW 07:19:02 22° W 07:23:33 10° SW visible
19 Jan 5.6 17:17:03 10° SE 17:21:19 20° E 17:25:37 10° NE visible
19 Jan 4.4 18:59:17 10° SSW 19:05:24 82° W 19:11:36 10° N visible
19 Jan 6.8 20:47:11 10° W 20:51:17 18° WNW 20:55:25 10° NNW visible
20 Jan 6.5 04:01:14 10° N 04:06:08 24° ENE 04:11:00 10° ESE visible
20 Jan 4.4 05:45:29 10° NNW 05:51:40 76° W 05:57:48 10° S visible
20 Jan 5.2 17:32:39 10° SE 17:37:47 29° E 17:42:57 10° NNE visible
20 Jan 5.0 19:16:15 10° SSW 19:22:16 57° WNW 19:28:21 10° N visible
20 Jan 7.2 21:05:50 10° WNW 21:08:36 13° NW 21:11:21 10° NNW visible
21 Jan 6.0 04:17:43 10° N 04:23:15 33° ENE 04:28:45 10° SE visible
21 Jan 4.6 06:02:24 10° NNW 06:08:22 53° W 06:14:18 10° SSW visible
21 Jan 4.8 17:48:40 10° SSE 17:54:21 42° E 18:00:05 10° NNE visible
21 Jan 5.7 19:33:30 10° SW 19:39:13 40° WNW 19:45:01 10° N visible
22 Jan 7.3 02:52:20 10° NE 02:53:41 11° NE 02:55:01 10° ENE visible
22 Jan 5.4 04:34:19 10° N 04:40:16 47° ENE 04:46:10 10° SE visible
22 Jan 4.9 06:19:25 10° NNW 06:24:59 36° W 06:30:30 10° SSW visible
22 Jan 4.4 18:05:00 10° S 18:10:59 61° E 18:17:03 10° NNE visible
22 Jan 6.2 19:51:03 10° WSW 19:56:17 29° WNW 20:01:34 10° N visible
23 Jan 7.0 03:07:35 10° NNE 03:11:03 15° NE 03:14:30 10° E visible
23 Jan 4.7 04:51:01 10° N 04:57:11 67° ENE 05:03:18 10° SSE visible
23 Jan 5.4 06:36:36 10° NNW 06:41:29 25° W 06:46:22 10° SW visible
23 Jan 4.4 18:21:36 10° S 18:27:43 87° E 18:33:55 10° N visible
23 Jan 6.7 20:08:57 10° WSW 20:13:26 21° WNW 20:17:58 10° N visible
24 Jan 6.6 03:23:44 10° N 03:28:19 21° ENE 03:32:52 10° ESE visible
24 Jan 4.3 05:07:47 10° NNW 05:14:01 87° W 05:20:11 10° S visible
24 Jan 5.7 06:54:05 10° NW 06:57:56 17° WNW 07:01:45 10° WSW visible
24 Jan 4.8 18:38:28 10° SSW 18:44:33 66° WNW 18:50:43 10° N visible
24 Jan 7.1 20:27:19 10° W 20:30:42 15° NW 20:34:07 10° NNW visible
25 Jan 6.2 03:40:09 10° N 03:45:28 29° ENE 03:50:45 10° ESE visible
25 Jan 4.4 05:24:40 10° NNW 05:30:45 61° W 05:36:47 10° S visible
25 Jan 6.1 07:12:24 10° NW 07:14:16 11° WNW 07:16:08 10° W visible
25 Jan 5.0 17:11:15 10° SSE 17:16:45 37° E 17:22:19 10° NNE visible
25 Jan 5.5 18:55:37 10° SW 19:01:28 46° WNW 19:07:24 10° N visible
25 Jan 7.3 20:46:55 10° WNW 20:48:06 11° NW 20:49:17 10° NW visible
26 Jan 5.6 03:56:43 10° N 04:02:31 41° ENE 04:08:17 10° SE visible
26 Jan 4.7 05:41:39 10° NNW 05:47:23 42° W 05:53:06 10° SSW visible
26 Jan 4.6 17:27:28 10° SSE 17:33:22 53° E 17:39:20 10° NNE visible
26 Jan 6.1 19:13:02 10° SW 19:18:30 33° WNW 19:24:01 10° N visible
27 Jan 7.1 02:30:19 10° NNE 02:33:10 13° NE 02:36:01 10° E visible
27 Jan 4.9 04:13:23 10° N 04:19:29 58° ENE 04:25:32 10° SSE visible
27 Jan 5.2 05:58:45 10° NNW 06:03:57 29° W 06:09:06 10° SW visible
27 Jan 4.4 17:43:58 10° S 17:50:04 77° E 17:56:15 10° NNE visible
27 Jan 6.6 19:30:47 10° WSW 19:35:37 24° WNW 19:40:30 10° N visible
